GFSFLT1_500_rhum_225.txt.gz
RH
33 32 32 30 30 29 27 27 28 29 30 32 33 34 34 37 39 39 40 44 48 54 62 54 66 64 71 65 73 77 79 73
28 29 30 32 32 32 32 33 35 36 35 36 40 44 43 46 47 46 47 48 49 53 67 64 72 76 82 80 67 68 79 96
32 35 39 41 41 44 47 48 47 46 52 54 59 60 60 59 60 63 63 64 72 66 67 75 81 87 87 91 91 81 70 90
33 34 34 34 33 36 38 42 45 48 49 49 52 53 52 51 50 52 63 66 66 80 81 86 87 94 94 95 87 88 77 82
25 24 22 21 20 21 23 23 24 24 24 32 33 34 40 50 54 56 67 67 71 75 76 94 80 71 94 95 95 97 81 84
29 28 26 27 26 28 30 30 30 29 26 24 24 30 36 49 63 75 82 79 82 79 67 82 69 68 75 96 98 64 97 99
28 32 35 38 38 33 25 14 10 8 6 12 35 48 32 16 11 14 29 49 57 52 47 49 59 77 95 89 88 79 97 96
38 34 34 30 22 17 11 10 8 15 27 34 24 13 8 4 3 4 10 11 37 34 41 43 68 86 81 73 83 99 96 97
30 31 32 25 16 13 10 10 20 27 19 17 6 3 3 2 3 5 15 40 48 43 42 41 43 61 62 56 43 93 98 96
35 30 27 21 14 12 14 21 17 8 4 3 2 2 2 3 13 56 50 87 68 86 100 90 95 76 61 67 100 99 100 98
35 29 22 17 22 31 29 13 6 3 2 2 2 2 2 6 45 100 100 78 75 100 100 100 100 100 100 100 100 100 100 100
32 27 27 43 41 22 6 2 2 2 2 2 3 5 7 33 76 99 100 100 96 100 99 98 100 100 100 100 100 100 99 99
46 48 54 35 11 3 2 2 2 4 6 11 35 53 71 100 71 57 92 100 99 96 100 100 84 47 98 100 100 100 100 100
50 33 14 3 2 2 2 3 10 53 61 53 96 75 90 55 44 60 89 100 100 100 98 99 97 75 78 89 94 98 100 100
8 5 2 2 2 2 3 28 87 80 54 66 55 49 82 67 97 100 99 100 100 100 100 100 98 92 100 95 97 99 100 98
3 2 2 2 2 3 14 78 93 87 46 64 97 100 98 100 100 99 100 97 92 90 36 25 33 42 55 30 21 41 47 52
3 4 3 3 3 5 85 100 100 100 91 68 88 99 91 100 100 81 14 19 10 12 10 11 19 20 16 12 10 17 54 27
5 7 5 5 6 27 70 94 95 100 98 92 98 93 100 93 95 100 49 12 15 39 43 25 19 18 14 9 7 8 8 9
8 18 25 45 18 51 70 85 96 95 100 100 100 99 97 92 73 72 72 70 63 62 58 55 39 25 23 13 9 10 11 12

GFSFLT1_500_rhum_228.txt.gz
RH
29 31 34 30 30 29 28 30 33 32 33 31 30 29 28 26 25 24 25 30 33 39 50 59 63 68 62 63 72 73 70 62
36 41 38 34 34 34 32 33 32 32 36 34 37 34 32 32 32 33 35 35 36 39 43 55 56 66 65 67 82 78 90 82
40 37 39 42 46 46 44 45 43 37 38 32 33 35 38 43 42 46 46 47 52 57 55 55 51 61 67 67 93 92 92 95
28 32 35 35 33 35 36 37 37 38 41 38 34 35 38 41 42 44 42 43 48 53 58 54 51 51 62 68 64 100 80 85
30 30 28 31 26 28 35 28 26 20 19 23 26 25 28 30 32 36 44 44 41 35 36 37 48 48 95 54 66 90 96 86
30 26 22 20 19 18 17 17 18 18 23 29 30 26 23 21 21 23 24 23 17 17 16 15 12 13 17 53 46 59 65 84
29 29 26 24 21 18 17 15 14 13 10 7 8 6 16 28 29 24 20 16 10 7 11 14 16 18 26 15 14 19 70 72
29 28 25 30 24 19 15 15 16 16 18 25 29 35 35 30 25 22 19 12 6 3 3 27 34 37 39 27 26 25 31 19
25 26 27 20 15 14 14 12 12 12 31 34 41 27 23 24 20 18 13 5 3 2 3 23 43 51 60 44 38 88 67 34
32 37 33 19 19 22 21 18 17 30 41 28 17 14 15 13 8 3 2 2 2 16 20 35 77 72 99 100 100 100 57 96
38 36 24 21 24 25 25 30 37 37 22 8 6 3 3 2 2 4 12 26 49 54 100 100 100 92 84 100 100 100 100 100
39 29 28 30 36 44 46 40 28 10 3 2 2 2 7 25 51 88 84 59 70 90 98 100 100 100 100 93 100 100 100 100
40 44 50 56 52 39 24 12 4 3 2 2 8 25 40 68 40 52 60 69 52 46 60 100 100 94 97 86 97 99 100 100
50 53 53 42 25 10 4 3 3 2 2 32 42 41 50 33 53 62 90 76 81 74 99 100 100 100 99 100 93 94 94 100
60 41 21 9 3 3 3 3 2 3 37 47 40 41 34 40 75 91 98 84 92 99 98 99 95 97 100 100 100 100 100 98
25 10 4 3 4 4 3 3 4 29 44 44 42 52 76 73 78 100 90 52 46 19 19 28 32 45 66 32 60 100 92 99
7 4 4 5 5 4 4 4 51 74 51 52 31 37 52 75 86 86 82 79 14 40 46 37 18 16 23 46 24 24 21 50
4 4 5 6 6 6 12 57 71 62 53 72 80 63 69 80 68 68 68 55 74 69 61 59 58 56 36 22 16 13 10 9
5 6 6 8 9 13 38 58 64 63 80 71 95 94 94 93 92 86 76 37 28 26 25 23 22 26 31 34 29 20 11 9

GFSFLT1_500_rhum_231.txt.gz
RH
31 31 30 32 34 35 34 35 36 37 37 39 39 39 37 35 31 30 29 28 27 27 26 24 32 39 41 44 52 54 51 67
36 37 32 32 29 28 35 35 35 37 33 30 31 32 30 27 23 22 23 21 21 22 22 29 31 28 30 42 50 51 57 62
51 44 36 31 34 35 37 36 33 32 30 29 27 29 29 28 27 25 26 26 33 37 41 41 39 33 33 31 45 52 44 58
52 48 41 36 43 46 46 38 34 33 33 32 32 31 32 34 35 36 38 37 37 36 38 42 45 46 45 46 44 47 96 60
49 43 42 41 38 43 47 34 31 29 27 28 24 18 15 15 17 20 24 30 36 38 38 34 31 28 24 24 23 24 26 85
41 40 42 45 39 35 30 30 24 19 16 18 17 14 14 14 16 18 23 28 34 29 23 23 20 27 24 22 19 17 17 17
54 50 36 27 22 20 17 14 13 13 13 15 9 9 8 8 9 18 28 34 32 21 15 16 14 10 9 10 10 10 10 11
70 54 40 33 35 29 25 22 22 24 22 20 16 11 9 9 12 14 18 25 23 19 14 10 7 6 4 3 5 10 11 11
72 63 51 50 50 45 37 30 28 22 16 11 12 16 21 28 29 27 24 22 19 12 8 4 3 3 3 29 43 25 35 52
67 57 65 59 48 36 28 26 24 15 12 16 28 32 34 25 24 16 7 3 2 3 6 6 6 4 6 64 100 97 100 100
67 61 58 47 34 29 26 25 23 25 29 36 35 26 15 13 4 2 6 18 46 48 65 82 91 92 93 72 82 100 100 100
56 49 45 38 37 37 46 38 39 42 37 24 16 6 3 2 5 12 38 44 36 38 33 28 40 50 81 100 100 89 62 99
49 54 44 46 49 58 52 45 39 31 19 7 3 3 4 13 18 46 37 49 23 42 40 48 63 78 81 60 100 100 99 92
82 86 69 65 60 52 37 24 16 5 4 4 4 6 21 22 49 33 47 41 60 39 53 52 66 82 100 100 100 100 96 96
98 84 73 59 49 31 15 7 5 5 6 5 9 25 24 34 30 42 40 54 70 42 49 26 30 33 67 87 85 96 100 88
84 68 52 30 12 7 6 6 6 7 6 11 31 34 25 24 37 44 49 50 61 56 34 46 44 32 34 41 75 85 96 100
60 39 18 6 6 6 7 7 8 8 8 40 47 44 39 39 39 49 61 64 77 50 51 53 54 58 60 50 36 43 53 65
19 9 6 7 7 8 8 9 9 10 19 54 52 53 61 58 65 64 79 80 72 36 26 24 25 24 25 28 34 33 22 12
7 8 8 9 9 10 10 10 10 11 42 61 60 54 75 87 83 81 68 63 61 59 38 23 14 11 11 8 9 14 19 25

GFSFLT1_500_rhum_234.txt.gz
RH
26 46 46 52 56 51 43 45 44 39 40 38 37 36 33 30 28 27 26 25 24 24 22 21 19 19 20 21 27 26 30 43
27 35 45 47 55 52 51 52 53 55 53 47 42 38 36 33 32 30 28 25 26 25 22 18 18 14 17 23 28 34 29 30
39 41 47 51 51 47 45 44 45 49 48 48 49 45 41 37 34 32 30 30 29 28 27 24 25 25 28 35 37 35 28 47
46 52 54 56 56 49 46 48 49 47 46 43 42 41 42 41 39 37 37 35 34 32 31 31 30 31 32 35 38 36 32 32
60 62 64 70 74 67 60 51 43 44 43 37 30 28 28 26 23 23 23 21 19 20 19 20 23 25 28 27 28 25 24 26
56 61 67 85 82 79 65 54 45 35 26 23 24 23 21 20 20 18 21 23 25 24 23 25 26 27 27 24 21 18 17 18
56 53 75 70 66 52 52 62 66 50 40 36 33 30 27 27 28 26 23 17 14 15 19 25 24 23 21 19 14 7 7 8
70 78 82 87 73 56 60 56 42 33 31 35 35 35 33 28 21 13 9 9 14 19 22 22 20 17 14 8 4 3 4 4
99 99 100 91 79 68 83 76 64 57 55 45 36 27 21 15 12 12 16 21 25 24 20 14 7 3 3 5 5 4 3 2
100 100 100 99 91 86 86 80 65 53 38 26 21 17 20 22 26 32 32 23 10 5 3 4 13 18 17 15 19 32 25 4
100 99 91 90 81 84 77 63 50 35 30 24 28 35 41 39 30 15 4 2 3 6 16 22 24 19 16 24 33 40 35 51
100 94 88 86 84 75 62 56 47 43 45 47 52 41 24 14 3 3 3 4 7 29 25 18 18 18 27 34 46 67 76 57
83 75 79 70 67 67 76 64 62 61 61 51 23 14 3 3 4 4 5 8 22 23 18 23 25 22 30 40 67 86 82 83
80 87 100 86 72 72 73 74 64 47 20 15 6 3 4 5 5 7 14 26 31 24 25 31 36 38 26 22 34 78 92 100
95 91 86 84 77 84 82 47 20 9 6 4 4 5 6 6 7 15 20 22 22 33 34 41 42 46 59 61 42 45 79 97
95 95 98 94 86 49 24 14 8 5 5 5 6 7 8 8 15 23 27 28 32 42 42 40 32 49 53 52 54 42 37 53
98 97 84 55 30 22 17 9 6 5 6 8 9 9 9 18 39 38 48 49 44 48 51 32 25 23 25 23 18 18 25 31
91 74 39 24 18 17 6 6 7 8 9 10 11 12 11 17 51 54 61 66 64 54 48 48 45 36 22 12 7 7 8 7
71 42 21 9 7 6 7 9 10 10 11 12 13 13 12 18 48 60 77 76 65 62 47 46 51 47 26 8 8 9 7 7